When you browse on this site, cookies collect data to enhance your experience and personalize the content and advertising you see.
Visit our Privacy Policy to learn more. By continuing to use the site, you agree to this use of cookies and data.
  • In Portugal
  • List of Countries
  • For 7 days
  • Water Temperature
  • Satellite Maps
  • Weather Map
  • Weather Widgets
  • user-avatar
    Login

    Hourly Weather Al Hilla

    Today, 21 March, Thursday

    Time Temperature Precipitation Wind Pressure Humidity
    00:00 +17°C° 0 mm 4 mps 759 mmHg 24%
    01:00 +16°C° 0 mm 3 mps 759 mmHg 26%
    02:00 +16°C° 0 mm 3 mps 759 mmHg 28%
    03:00 +14°C° 0 mm 3 mps 759 mmHg 29%
    04:00 +14°C° 0 mm 3 mps 759 mmHg 30%
    05:00 +13°C° 0 mm 3 mps 759 mmHg 31%
    06:00 +13°C° 0 mm 3 mps 759 mmHg 32%
    07:00 +14°C° 0 mm 3 mps 759 mmHg 29%
    08:00 +17°C° 0 mm 3 mps 760 mmHg 26%
    09:00 +19°C° 0 mm 4 mps 760 mmHg 22%
    10:00 +20°C° 0 mm 4 mps 760 mmHg 20%
    11:00 +21°C° 0 mm 4 mps 760 mmHg 18%
    12:00 +22°C° 0 mm 4 mps 760 mmHg 16%
    13:00 +23°C° 0 mm 4 mps 759 mmHg 15%
    14:00 +23°C° 0 mm 4 mps 759 mmHg 14%
    15:00 +25°C° 0 mm 4 mps 758 mmHg 13%
    16:00 +23°C° 0 mm 4 mps 758 mmHg 14%
    17:00 +23°C° 0 mm 4 mps 758 mmHg 15%
    18:00 +22°C° 0 mm 3 mps 758 mmHg 16%
    19:00 +21°C° 0 mm 3 mps 758 mmHg 17%
    20:00 +20°C° 0 mm 3 mps 759 mmHg 18%
    21:00 +19°C° 0 mm 3 mps 759 mmHg 19%
    22:00 +19°C° 0 mm 3 mps 759 mmHg 19%
    23:00 +18°C° 0 mm 3 mps 759 mmHg 20%

    Tomorrow, 22 March, Friday

    Time Temperature Precipitation Wind Pressure Humidity
    00:00 +17°C° 0 mm 2 mps 759 mmHg 21%
    01:00 +17°C° 0 mm 2 mps 759 mmHg 22%
    02:00 +16°C° 0 mm 2 mps 759 mmHg 23%
    03:00 +16°C° 0 mm 2 mps 759 mmHg 24%
    04:00 +16°C° 0 mm 2 mps 759 mmHg 25%
    05:00 +15°C° 0 mm 2 mps 759 mmHg 27%
    06:00 +15°C° 0 mm 2 mps 759 mmHg 29%
    07:00 +17°C° 0 mm 2 mps 759 mmHg 27%
    08:00 +18°C° 0 mm 2 mps 760 mmHg 25%
    09:00 +21°C° 0 mm 1 mps 760 mmHg 23%
    10:00 +21°C° 0 mm 2 mps 760 mmHg 21%
    11:00 +23°C° 0 mm 2 mps 760 mmHg 19%
    12:00 +25°C° 0 mm 3 mps 760 mmHg 16%
    13:00 +25°C° 0 mm 3 mps 759 mmHg 16%
    14:00 +25°C° 0 mm 3 mps 759 mmHg 16%
    15:00 +26°C° 0 mm 4 mps 758 mmHg 16%
    16:00 +25°C° 0 mm 3 mps 758 mmHg 17%
    17:00 +25°C° 0 mm 3 mps 758 mmHg 18%
    18:00 +24°C° 0 mm 3 mps 758 mmHg 19%
    19:00 +24°C° 0 mm 2 mps 758 mmHg 20%
    20:00 +23°C° 0 mm 2 mps 759 mmHg 21%
    21:00 +23°C° 0 mm 2 mps 759 mmHg 22%
    22:00 +21°C° 0 mm 2 mps 759 mmHg 24%
    23:00 +20°C° 0 mm 2 mps 759 mmHg 25%

    Day after tomorrow, 23 March, Saturday

    Time Temperature Precipitation Wind Pressure Humidity
    00:00 +21°C° 0 mm 1 mps 759 mmHg 27%
    01:00 +20°C° 0 mm 1 mps 759 mmHg 28%
    02:00 +20°C° 0 mm 1 mps 758 mmHg 29%
    03:00 +18°C° 0 mm 2 mps 758 mmHg 30%
    04:00 +18°C° 0 mm 2 mps 758 mmHg 30%
    05:00 +18°C° 0 mm 2 mps 758 mmHg 30%
    06:00 +18°C° 0 mm 2 mps 758 mmHg 30%
    07:00 +19°C° 0 mm 2 mps 758 mmHg 28%
    08:00 +21°C° 0 mm 2 mps 759 mmHg 25%
    09:00 +24°C° 0 mm 2 mps 759 mmHg 22%
    10:00 +25°C° 0 mm 2 mps 759 mmHg 20%
    11:00 +26°C° 0 mm 2 mps 758 mmHg 18%
    12:00 +27°C° 0 mm 1 mps 758 mmHg 16%
    13:00 +27°C° 0 mm 2 mps 757 mmHg 16%
    14:00 +27°C° 0 mm 2 mps 756 mmHg 16%
    15:00 +28°C° 0 mm 2 mps 756 mmHg 17%
    16:00 +27°C° 0 mm 2 mps 755 mmHg 18%
    17:00 +27°C° 0 mm 1 mps 755 mmHg 20%
    18:00 +26°C° 0 mm 1 mps 755 mmHg 22%
    19:00 +26°C° 0 mm 1 mps 755 mmHg 24%
    20:00 +25°C° 0 mm 1 mps 755 mmHg 25%
    21:00 +24°C° 0 mm 1 mps 755 mmHg 27%
    22:00 +24°C° 0.1 mm 3 mps 754 mmHg 27%
    23:00 +23°C° 0.1 mm 4 mps 754 mmHg 27%

    24 March, Sunday

    Time Temperature Precipitation Wind Pressure Humidity
    00:00 +23°C° 0.1 mm 6 mps 753 mmHg 26%
    01:00 +22°C° 0.1 mm 6 mps 753 mmHg 27%
    02:00 +22°C° 0.1 mm 6 mps 753 mmHg 27%
    03:00 +21°C° 0.1 mm 6 mps 752 mmHg 28%
    04:00 +21°C° 0 mm 7 mps 752 mmHg 26%
    05:00 +21°C° 0 mm 7 mps 752 mmHg 25%
    06:00 +21°C° 0 mm 8 mps 752 mmHg 24%
    07:00 +22°C° 0 mm 9 mps 752 mmHg 26%
    08:00 +23°C° 0 mm 11 mps 752 mmHg 28%
    09:00 +24°C° 0 mm 12 mps 752 mmHg 29%
    10:00 +26°C° 0 mm 12 mps 751 mmHg 29%
    11:00 +26°C° 0 mm 12 mps 751 mmHg 30%
    12:00 +27°C° 0 mm 12 mps 750 mmHg 30%
    13:00 +28°C° 0 mm 11 mps 750 mmHg 29%
    14:00 +28°C° 0 mm 11 mps 749 mmHg 28%
    15:00 +29°C° 0 mm 10 mps 749 mmHg 27%
    16:00 +28°C° 0 mm 10 mps 748 mmHg 31%
    17:00 +27°C° 0 mm 11 mps 748 mmHg 34%
    18:00 +26°C° 0 mm 11 mps 748 mmHg 37%
    19:00 +24°C° 0.1 mm 11 mps 748 mmHg 41%
    20:00 +22°C° 0.1 mm 11 mps 748 mmHg 45%
    21:00 +21°C° 0.1 mm 12 mps 749 mmHg 49%
    22:00 +21°C° 0 mm 12 mps 748 mmHg 50%
    23:00 +19°C° 0 mm 11 mps 748 mmHg 51%

    25 March, Monday

    Time Temperature Precipitation Wind Pressure Humidity
    00:00 +18°C° 0 mm 11 mps 748 mmHg 52%
    01:00 +18°C° 0.1 mm 11 mps 747 mmHg 56%
    02:00 +18°C° 0.1 mm 11 mps 747 mmHg 60%
    03:00 +18°C° 0.1 mm 11 mps 747 mmHg 65%
    04:00 +18°C° 0.8 mm 10 mps 747 mmHg 68%
    05:00 +18°C° 0.8 mm 9 mps 747 mmHg 71%
    06:00 +18°C° 0.8 mm 8 mps 747 mmHg 74%
    07:00 +20°C° 1.3 mm 6 mps 747 mmHg 72%
    08:00 +21°C° 1.3 mm 5 mps 747 mmHg 70%
    09:00 +22°C° 1.3 mm 3 mps 747 mmHg 68%
    10:00 +23°C° 0.1 mm 4 mps 747 mmHg 57%
    11:00 +26°C° 0.1 mm 4 mps 747 mmHg 46%
    12:00 +27°C° 0.1 mm 4 mps 746 mmHg 34%
    13:00 +27°C° 0 mm 5 mps 746 mmHg 31%
    14:00 +27°C° 0 mm 6 mps 746 mmHg 28%
    15:00 +28°C° 0 mm 7 mps 745 mmHg 25%
    16:00 +27°C° 0 mm 6 mps 746 mmHg 23%
    17:00 +27°C° 0 mm 6 mps 746 mmHg 22%
    18:00 +26°C° 0 mm 5 mps 747 mmHg 20%
    19:00 +25°C° 0 mm 4 mps 747 mmHg 20%
    20:00 +23°C° 0 mm 4 mps 748 mmHg 21%
    21:00 +22°C° 0 mm 3 mps 748 mmHg 21%
    22:00 +21°C° 0 mm 3 mps 748 mmHg 30%
    23:00 +20°C° 0 mm 3 mps 748 mmHg 39%

    26 March, Tuesday

    Time Temperature Precipitation Wind Pressure Humidity
    00:00 +19°C° 0 mm 3 mps 748 mmHg 48%
    01:00 +19°C° 0 mm 6 mps 748 mmHg 50%
    02:00 +18°C° 0 mm 8 mps 749 mmHg 51%
    03:00 +17°C° 0 mm 10 mps 749 mmHg 53%
    04:00 +17°C° 0.5 mm 9 mps 750 mmHg 51%
    05:00 +16°C° 0.5 mm 8 mps 751 mmHg 49%
    06:00 +15°C° 0.5 mm 6 mps 751 mmHg 48%
    07:00 +16°C° 0 mm 7 mps 752 mmHg 44%
    08:00 +16°C° 0 mm 8 mps 752 mmHg 40%
    09:00 +16°C° 0 mm 9 mps 753 mmHg 36%
    10:00 +17°C° 0 mm 9 mps 753 mmHg 36%
    11:00 +18°C° 0 mm 8 mps 753 mmHg 35%
    12:00 +18°C° 0 mm 8 mps 753 mmHg 35%
    13:00 +20°C° 0 mm 8 mps 753 mmHg 34%
    14:00 +21°C° 0 mm 8 mps 753 mmHg 32%
    15:00 +21°C° 0 mm 7 mps 753 mmHg 31%
    16:00 +21°C° 0 mm 6 mps 753 mmHg 31%
    17:00 +21°C° 0 mm 6 mps 754 mmHg 31%
    18:00 +21°C° 0 mm 5 mps 754 mmHg 32%
    19:00 +20°C° 0 mm 4 mps 755 mmHg 35%
    20:00 +19°C° 0 mm 3 mps 756 mmHg 37%
    21:00 +19°C° 0 mm 2 mps 756 mmHg 40%
    22:00 +18°C° 0 mm 2 mps 757 mmHg 42%
    23:00 +18°C° 0 mm 2 mps 757 mmHg 43%
    Show more